Regional Weather Roundup
Issued by NWS

Home | Current Version | Previous Version | Graphics & Text | Print | Product List | Glossary On
Versions: 1 2 3 4 5 6 7 8 9 10 11 12 13 14 15 16 17 18 19 20 21 22 23 24 25 26 27 28 29 30 31 32 33 34 35 36 37 38 39 40 41 42 43 44 45 46 47 48 49 50
782
ASUS44 KJAN 310403
RWRMS

MISSISSIPPI HOURLY WEATHER ROUNDUP
NATIONAL WEATHER SERVICE JACKSON MS
1100 PM CDT WED JUL 30 2014

NOTE: "FAIR: INDICATES FEW OR NO CLOUDS BELOW 12,000 FEET WITH NO
SIGNIFICANT WEATHER AND/OR OBSTRUCTIONS TO VISIBILITY.

MSZ001>002-007>008-010>013-018>021-025>028-034>036-310500-
NORTHWEST MISSISSIPPI

CITY           SKY/WX    TMP DP  RH WIND       PRES   REMARKS
CLARKSDALE     CLOUDY    72  68  88 W5        30.07S
CLEVELAND      FAIR      72  70  93 CALM      30.05S
GREENWOOD      CLOUDY    71  68  90 CALM      30.06R
GREENVILLE     CLOUDY    72  69  90 N3        30.05R
GRENADA        FAIR      68  64  88 CALM      30.06S
OLIVE BRANCH   CLEAR     72  70  94 CALM      30.06F
OXFORD         FAIR      68  64  88 CALM      30.08S
TUNICA         MOCLDY    72  64  78 NW3       30.07S
$$

MSZ003>006-009-014>017-022>024-029>033-037>039-310500-
NORTHEAST MISSISSIPPI

CITY           SKY/WX    TMP DP  RH WIND       PRES   REMARKS
BELMONT        FAIR      69  66  88 CALM      30.08S
COLUMBUS AFB   CLOUDY    70  65  82 CALM      30.06S
CORINTH        FAIR      68  66  94 CALM      30.07S
GOLDN TRIANGLE CLOUDY    70  63  78 CALM      30.06S
STARKVILLE     FAIR      68  63  83 CALM      30.06S
TUPELO         CLOUDY    73  64  73 CALM      30.06S
$$

MSZ040-058-310500-
CENTRAL MISSISSIPPI

CITY           SKY/WX    TMP DP  RH WIND       PRES   REMARKS
JACKSON INTL   CLOUDY    74  60  61 NE3       30.05R
JACKSON HAWKNS CLOUDY    76  58  53 CALM      30.06R
MERIDIAN KEY   MOCLDY    67  60  78 CALM      30.05S
MERIDIAN NAS   MOCLDY    70  61  73 NW3       30.05S
RAYMOND        FAIR      68  64  88 CALM      30.05S
VICKSBURG      MOCLDY    69  65  86 CALM      30.05R
$$

MSZ059>079-310500-
SOUTH MISSISSIPPI

CITY           SKY/WX    TMP DP  RH WIND       PRES   REMARKS
BROOKHAVEN     FAIR      66  64  94 CALM      30.07R
COLUMBIA       FAIR      66  64  94 CALM      30.04R
HATTIESBURG    CLEAR     68  64  87 CALM      30.05R
MCCOMB         CLEAR     74  61  63 NE3       30.05R
NATCHEZ        PTCLDY    72  63  73 NE3       30.05S
PINE BELT      CLEAR     66  59  77 CALM      30.06R
$$

MSZ080>082-310500-
COASTAL MISSISSIPPI

CITY           SKY/WX    TMP DP  RH WIND       PRES   REMARKS
BILOXI         CLEAR     75  61  60 E3        30.03S
PASCAGOULA     CLEAR     66  63  90 CALM      30.03S
GULFPORT       CLEAR     78  60  53 NE5       30.02S
$$



USA.gov is the U.S. government's official web portal to all federal, state and local government web resources and services.